Date String (YYYY-MM-DD hh:mm:ss) UTC,Instrument flags,Ambient pressure (hPa),Sample flow (lpm),Bypass flow (lpm),Sample temperature (°C),Ambient temperature (°C),ASC tube jacket temperature (°C),LED temperature (°C),Box temperature (°C),Sample RH (%),Span deviation,Mass concentration (μg/m³),Mass concentration (μg/m³),Mass concentration (μg/m³)
DateTimeUTC,F1_M11,P_M11,Q1_M11,Q2_M11,T1_M11,T2_M11,T3_M11,T4_M11,T5_M11,U1_M11,ZSPAN_M11,X0_M11,X2_M11,X1_M11
2022-10-30 23:00:00,,0825.3,5.02,0.00,29.6,28.1,00.0,38.4,31.4,06.9,0000.0,0008.40,0005.10,0004.72
2022-10-30 23:01:00,,0825.3,4.99,0.00,29.6,28.2,00.0,38.4,31.4,06.9,0000.0,0008.35,0005.08,0004.70
2022-10-30 23:02:00,,0825.3,5.00,0.00,29.6,28.2,00.0,38.4,31.4,06.8,0000.0,0008.54,0005.13,0004.70
2022-10-30 23:03:00,,0825.3,4.98,0.00,29.6,28.1,00.0,38.4,31.4,06.8,0000.0,0008.56,0005.14,0004.71
2022-10-30 23:04:00,,0825.3,5.00,0.00,29.6,28.1,00.0,38.4,31.4,06.9,0000.0,0008.38,0005.13,0004.71
2022-10-30 23:05:00,,0825.3,5.00,0.00,29.6,28.2,00.0,38.4,31.4,06.8,0000.0,0008.62,0005.12,0004.72
2022-10-30 23:06:00,,0825.3,5.00,0.00,29.6,28.3,00.0,38.4,31.4,06.9,0000.0,0008.80,0005.15,0004.73
2022-10-30 23:07:00,,0825.2,5.00,0.00,29.6,28.3,00.0,38.4,31.4,07.0,0000.0,0009.11,0005.19,0004.72
2022-10-30 23:08:00,,0825.3,5.00,0.00,29.7,28.3,00.0,38.4,31.4,07.0,0000.0,0009.63,0005.22,0004.72
2022-10-30 23:09:00,,0825.3,5.00,0.00,29.7,28.3,00.0,38.4,31.5,06.9,0000.0,0009.59,0005.19,0004.72
2022-10-30 23:10:00,,0825.3,4.98,0.00,29.7,28.3,00.0,38.4,31.5,06.8,0000.0,0009.80,0005.17,0004.70
2022-10-30 23:11:00,,0825.3,5.00,0.00,29.7,28.3,00.0,38.4,31.5,06.8,0000.0,0010.38,0005.18,0004.69
2022-10-30 23:12:00,,0825.3,5.00,0.00,29.7,28.3,00.0,38.5,31.5,06.9,0000.0,0010.44,0005.19,0004.67
2022-10-30 23:13:00,,0825.3,5.00,0.00,29.7,28.4,00.0,38.5,31.5,06.9,0000.0,0010.24,0005.13,0004.64
2022-10-30 23:14:00,,0825.3,5.01,0.00,29.7,28.4,00.0,38.5,31.5,07.0,0000.0,0010.23,0005.10,0004.62
2022-10-30 23:15:00,,0825.3,5.00,0.00,29.7,28.4,00.0,38.5,31.5,07.0,0000.0,0010.58,0005.07,0004.60
2022-10-30 23:16:00,,0825.3,5.00,0.00,29.7,28.4,00.0,38.5,31.5,06.9,0000.0,0010.32,0005.05,0004.58
2022-10-30 23:17:00,,0825.3,5.00,0.00,29.7,28.4,00.0,38.5,31.5,06.9,0000.0,0010.09,0005.02,0004.57
2022-10-30 23:18:00,,0825.3,5.00,0.00,29.8,28.4,00.0,38.5,31.6,06.8,0000.0,0010.30,0005.01,0004.57
2022-10-30 23:19:00,,0825.3,4.99,0.00,29.8,28.4,00.0,38.5,31.6,06.7,0000.0,0009.97,0004.99,0004.57
2022-10-30 23:20:00,,0825.3,4.99,0.00,29.8,28.3,00.0,38.5,31.6,06.6,0000.0,0010.03,0005.01,0004.57
2022-10-30 23:21:00,,0825.3,5.00,0.00,29.8,28.3,00.0,38.5,31.6,06.7,0000.0,0009.89,0005.01,0004.55
2022-10-30 23:22:00,,0825.3,5.00,0.00,29.8,28.4,00.0,38.5,31.6,06.8,0000.0,0009.45,0005.01,0004.54
2022-10-30 23:23:00,,0825.3,5.00,0.00,29.8,28.4,00.0,38.5,31.6,06.8,0000.0,0009.24,0004.97,0004.54
2022-10-30 23:24:00,,0825.3,5.00,0.00,29.8,28.4,00.0,38.6,31.6,06.8,0000.0,0009.38,0004.96,0004.54
2022-10-30 23:25:00,,0825.3,5.00,0.00,29.8,28.5,00.0,38.6,31.6,06.8,0000.0,0009.53,0004.95,0004.53
2022-10-30 23:26:00,,0825.3,5.00,0.00,29.8,28.5,00.0,38.6,31.6,06.8,0000.0,0009.03,0004.93,0004.52
2022-10-30 23:27:00,,0825.3,5.01,0.00,29.8,28.5,00.0,38.6,31.6,06.8,0000.0,0009.33,0004.90,0004.50
2022-10-30 23:28:00,,0825.3,5.00,0.00,29.8,28.4,00.0,38.6,31.6,06.9,0000.0,0009.38,0004.86,0004.47
2022-10-30 23:29:00,,0825.3,5.00,0.00,29.8,28.4,00.0,38.6,31.6,06.9,0000.0,0009.38,0004.82,0004.45
2022-10-30 23:30:00,,0825.3,5.00,0.00,29.8,28.4,00.0,38.6,31.6,06.9,0000.0,0009.98,0004.80,0004.43
2022-10-30 23:31:00,,0825.3,5.00,0.00,29.9,28.5,00.0,38.6,31.7,06.9,0000.0,0010.53,0004.74,0004.39
2022-10-30 23:32:00,,0825.4,5.00,0.00,29.9,28.5,00.0,38.6,31.7,06.9,0000.0,0011.44,0004.70,0004.37
2022-10-30 23:33:00,,0825.3,5.00,0.00,29.9,28.5,00.0,38.6,31.7,06.9,0000.0,0011.46,0004.71,0004.36
2022-10-30 23:34:00,,0825.3,4.99,0.00,29.9,28.5,00.0,38.6,31.7,06.9,0000.0,0011.51,0004.69,0004.34
2022-10-30 23:35:00,,0825.4,5.00,0.00,29.9,28.6,00.0,38.6,31.7,06.8,0000.0,0011.33,0004.69,0004.32
2022-10-30 23:36:00,,0825.4,5.00,0.00,29.9,28.6,00.0,38.7,31.7,06.9,0000.0,0011.12,0004.68,0004.32
2022-10-30 23:37:00,,0825.4,5.00,0.00,29.9,28.6,00.0,38.7,31.8,06.9,0000.0,0011.10,0004.68,0004.33
2022-10-30 23:38:00,,0825.3,5.00,0.00,29.9,28.6,00.0,38.7,31.7,06.8,0000.0,0010.71,0004.68,0004.33
2022-10-30 23:39:00,,0825.3,5.00,0.00,30.0,28.6,00.0,38.7,31.8,06.8,0000.0,0010.69,0004.69,0004.34
2022-10-30 23:40:00,,0825.3,5.00,0.00,30.0,28.7,00.0,38.7,31.8,06.7,0000.0,0010.34,0004.69,0004.34
2022-10-30 23:41:00,,0825.3,5.01,0.00,30.0,28.7,00.0,38.7,31.8,06.7,0000.0,0009.57,0004.70,0004.34
2022-10-30 23:42:00,,0825.3,5.00,0.00,30.0,28.7,00.0,38.7,31.9,06.7,0000.0,0008.92,0004.72,0004.36
2022-10-30 23:43:00,,0825.3,5.00,0.00,30.0,28.7,00.0,38.7,31.9,06.7,0000.0,0007.92,0004.74,0004.38
2022-10-30 23:44:00,,0825.3,5.00,0.00,30.0,28.8,00.0,38.8,31.9,06.7,0000.0,0007.90,0004.74,0004.39
2022-10-30 23:45:00,,0825.3,5.00,0.00,30.1,28.8,00.0,38.8,31.9,06.7,0000.0,0007.99,0004.72,0004.39
2022-10-30 23:46:00,,0825.3,5.00,0.00,30.1,28.8,00.0,38.8,31.9,06.7,0000.0,0008.47,0004.73,0004.40
2022-10-30 23:47:00,,0825.4,5.00,0.00,30.1,28.8,00.0,38.8,31.9,06.7,0000.0,0008.53,0004.75,0004.40
2022-10-30 23:48:00,,0825.3,5.00,0.00,30.1,28.8,00.0,38.8,31.9,06.6,0000.0,0008.70,0004.76,0004.41
2022-10-30 23:49:00,,0825.4,5.01,0.00,30.1,28.9,00.0,38.8,31.9,06.6,0000.0,0009.32,0004.80,0004.42
2022-10-30 23:50:00,,0825.4,5.01,0.00,30.1,28.9,00.0,38.8,31.9,06.6,0000.0,0009.26,0004.78,0004.43
2022-10-30 23:51:00,,0825.4,5.00,0.00,30.1,28.9,00.0,38.9,31.9,06.5,0000.0,0009.31,0004.79,0004.45
2022-10-30 23:52:00,,0825.4,5.01,0.00,30.1,28.9,00.0,38.9,32.0,06.5,0000.0,0009.58,0004.78,0004.46
2022-10-30 23:53:00,,0825.4,5.01,0.00,30.2,28.9,00.0,38.9,32.0,06.5,0000.0,0010.03,0004.79,0004.46
2022-10-30 23:54:00,,0825.4,4.98,0.00,30.2,28.9,00.0,38.9,32.0,06.5,0000.0,0010.12,0004.83,0004.47
2022-10-30 23:55:00,,0825.4,5.00,0.00,30.2,28.9,00.0,38.9,32.0,06.5,0000.0,0010.71,0004.83,0004.47
2022-10-30 23:56:00,,0825.3,4.99,0.00,30.2,28.9,00.0,38.9,32.0,06.5,0000.0,0010.50,0004.83,0004.47
2022-10-30 23:57:00,,0825.4,5.01,0.00,30.2,28.9,00.0,38.9,32.0,06.5,0000.0,0010.03,0004.81,0004.47
2022-10-30 23:58:00,,0825.3,5.01,0.00,30.2,28.9,00.0,38.9,32.0,06.5,0000.0,0010.47,0004.82,0004.46
2022-10-30 23:59:00,,0825.3,5.00,0.00,30.2,28.9,00.0,39.0,32.0,06.5,0000.0,0010.91,0004.80,0004.46
